weather.gov     
National Weather Service

Terminal Aerodrome Forecast
NWS Homepage
This page is being discontinued on March 12, 2014.
The same data is available at this site. Please update your bookmarks.
Thank you, and we apologize for the inconvenience.
Please send an email to SR-SRH.Webmaster@noaa.gov with any concerns.


Current Version
Previous Version:    01  02  03  04  05  06  07  08  09  10  11  12  13  14  15  16  17  18  19  20  21  22  23  24  25  
[Printable]
738
FTUS46 KOTX 020537
TAFCOE
TAF
KCOE 020537Z 0206/0306 12004KT P6SM FEW100 SCT200
     FM021200 08010KT P6SM SCT200
     FM022100 35006KT P6SM VCTS SCT100CB BKN200
     FM030400 03005KT P6SM SCT100 OVC150
      AMD LTD TO CLD VIS AND WIND=




738
FTUS46 KOTX 020537
TAFCOE
TAF
KCOE 020537Z 0206/0306 12004KT P6SM FEW100 SCT200
     FM021200 08010KT P6SM SCT200
     FM022100 35006KT P6SM VCTS SCT100CB BKN200
     FM030400 03005KT P6SM SCT100 OVC150
      AMD LTD TO CLD VIS AND WIND=


U.S. Dept. of Commerce
NOAA National Weather Service
1325 East West Highway
Silver Spring, MD 20910
E-mail: w-nws.webmaster@noaa.gov
Page last modified: May 16, 2007
NATIONAL WEATHER SERVICE: for Safety, for Work, for Fun - FOR LIFE